Retour au catalogue

STARLINK-11194

ActifCommunicationsVLEO
NORAD 60187·PAYLOAD·🇺🇸 United States

Lancé Jul 3, 2024 depuis Cape Canaveral Space Force Station

Loading…

Prochains Passages (prochaines 24 heures)

TLE

FraisSource: CelesTrak SupGP

Époque: Sep 14, 2026, 21:33 UTC

1 60187C 24124E   26257.89840278 -.00091977  00000+0 -75771-3 0  2574
2 60187  53.1571 308.2150 0001175  82.7797 350.5126 15.69753229    11

Suivez STARLINK-11194 en temps réel avec AllMySat

Download on the App Store